weather.gov     
National Weather Service

Regional Weather Roundup
NWS Homepage
This page is being discontinued on March 12, 2014.
The same data is available at this site. Please update your bookmarks.
Thank you, and we apologize for the inconvenience.
Please send an email to SR-SRH.Webmaster@noaa.gov with any concerns.


Current Version
Previous Version:    01  02  03  04  05  06  07  08  09  10  11  12  13  14  15  16  17  18  19  20  21  22  23  24  25  26  27  28  29  30  
   31  32  33  34  35  36  37  38  39  40  41  42  43  44  45  46  47  48  49  50  51  
[Printable]
489
ASUS44 KOUN 161310
RWROK

WEATHER ROUNDUP FOR OKLAHOMA
NATIONAL WEATHER SERVICE NORMAN OK
800 AM CDT WED APR 16 2014

NOTE: "FAIR" INDICATES FEW OR NO CLOUDS BELOW 12,000 FEET WITH NO
      SIGNIFICANT WEATHER AND/OR OBSTRUCTIONS TO VISIBILITY.

OKZ001>007-009>012-014-015-017-161400-
NORTHWEST OKLAHOMA AND THE PANHANDLE

CITY           SKY/WX    TMP DP  RH WIND       PRES   REMARKS
GAGE           MOSUNNY   47  17  30 S24G39    29.78R
ENID/VANCE AFB PTSUNNY   48  30  49 S26G36    29.88S
ENID/WOODRING  PTSUNNY   46  28  49 SE20G26   29.88F
$$

OKZ016-021>023-033>039-044-045-161400-
SOUTHWEST OKLAHOMA

CITY           SKY/WX    TMP DP  RH WIND       PRES   REMARKS
LAWTON/REGL    MOSUNNY   45  28  51 S15       29.99R
LAWTON/FT SILL MOSUNNY   46  27  48 S21G28    29.97R
FREDERICK      SUNNY     45  27  49 S17       29.93R
CLINTON        MOSUNNY   45  25  45 S24G36    29.89S
HOBART         MOSUNNY   46  27  47 S24G33    29.92R
ALTUS AFB      MOSUNNY   45  27  48 SE15      29.94R
$$

OKZ018>020-024>031-161400-
CENTRAL OKLAHOMA

CITY           SKY/WX    TMP DP  RH WIND       PRES   REMARKS
OKLAHOMA CITY  PTSUNNY   47  28  47 S24G33    29.96S
OKC/WILEY POST MOSUNNY   48  26  42 S28G38    29.95R
OKC/TINKER AFB MOSUNNY   46  30  53 S22G33    29.98R
STILLWATER     PTSUNNY   48  28  46 S18G28    29.97R
GUTHRIE        MOSUNNY   50  27  40 S23G29    29.95S
$$

OKZ008-013-054>072-161400-
NORTHEAST OKLAHOMA

CITY           SKY/WX    TMP DP  RH WIND       PRES   REMARKS
TULSA          CLOUDY    47  33  58 SE13      30.04R
TULSA/JONES    PTSUNNY   47  30  51 S10G18    30.05R
PONCA CITY     MOSUNNY   49  27  42 S17G35    29.93F
BARTLESVILLE   PTSUNNY   45  30  55 S12       30.02R
MUSKOGEE       MOSUNNY   43  33  68 SE14      30.10R
$$

OKZ032-040>043-046>053-073>077-161400-
SOUTH CENTRAL/SOUTHEAST OKLAHOMA

CITY           SKY/WX    TMP DP  RH WIND       PRES   REMARKS
ARDMORE/DWNTWN   N/A     46  32  57 S14       30.08R
MCALESTER      MOSUNNY   47  30  51 S7        30.11R
$$





U.S. Dept. of Commerce
NOAA National Weather Service
1325 East West Highway
Silver Spring, MD 20910
E-mail: w-nws.webmaster@noaa.gov
Page last modified: May 16, 2007
NATIONAL WEATHER SERVICE: for Safety, for Work, for Fun - FOR LIFE